ONEWEB-0087, 45451

Orbit data source: Space-Track

ONEWEB-0087, 45451 is a payload satellite owned by One Web (UK) in LEO that was launched on Sat, 21 Mar 2020 UTC via a SOYUZ-2-1B launch vehicle from the Tyuratam Missile And Space Complex (TTMTR). Payload-class satellites include a variety of spacecraft equipped with specific instruments for various scientific and technological missions. These include communications satellites like Starlink; space stations such as the ISS; scientific satellites like the Hubble; Earth observation satellites from companies like Planet Labs, Umbra, and HawkEye 360; GPS; miniature CubeSats for education and research; and military/defense satellites.

Loading next visibility...
Identifier
45451, 2020-020AD
Orbit
LEO
Country
Flag of UKUK
Related business
Manufacturer
One Web
Mission
Operational Commercial Communications
Bus & Motor
ARROW, Unknown motor
Mass
148 kg wet, ~140 kg dry
Launch date (UTC)
2020-03-21 (5 years ago)
Launch vehicle
SOYUZ-2-1B
Launch site
Tyuratam Missile And Space Complex (TTMTR)
Object type
Payload
Rocket body
Debris
Shape & HBR
Trap Box + 2 Pan, 2.5 m
Radar Cross Section
2.957 m², Large (>1 m²)

Expand to show TLE details & history
Last TLE update: 13 hours ago

TLE from 13 hours ago
0 ONEWEB-0087
1 45451U 20020AD  25243.10351595 -.00000407  00000-0 -11841-2 0  9998
2 45451  87.8779  78.8059 0001894  80.5879 279.5463 13.11413898264561
Epoch: 2025-08-31T02:29Z
TLE epoch observation values (Epoch: 2025-08-31T02:29:03.778Z)
Latitude
Longitude
62.0119°
Altitude
1,220.345 km
Speed
7.244 km/s
True Right ascension
05h 15m 13s
True Declination
0° 00' 00"
Sunlit
Object was in daylight at epoch
Visualization orbit readout
Latitude
Unknown
Longitude
Unknown
Altitude
Unknown
Speed
Unknown
Apparent Right ascension
Unknown
Apparent Declination
Unknown
Sunlit
N/A
Visualization observer readout
Local Sidereal Time
06:47:53
Azimuth
Unknown
Elevation
Unknown
Doppler factor
Unknown
Orbital elements
Apogee altitude
1,216.251 km
Perigee altitude
1,213.375 km
Semi-major axis
7,592.95 km
Eccentricity
0.00019
Inclination
87.8779°
RAAN
78.8059°
Arg. of periapsis
80.5879°
True anomaly
279.5249°
Mean anomaly
279.5463°
Eccentric anomaly
279.5356°
Mean motion
3.2804 °/min
Orbital period
109.74 mins
BSTAR
-0.0011841
Loading maneuver chart data...
Computing Atmospheric mass density...
Loading historical data...
Loading historical data...
Loading historical data...
Loading historical data...
Loading historical data...
Loading historical data...
Loading historical data...

Documentation

Showing up to 5 results
|